Showing default

QIANFAN-29, 61562

Orbit data source: Space-Track

QIANFAN-29, 61562 is a Chinese payload satellite in LEO that was launched on Tue, 15 Oct 2024 UTC via a CHANG ZHENG 6A launch vehicle from the Taiyaun Space Center, China (TSC). Payloads include a variety of satellites, spacecraft, and rockets equipped with specific instruments for various scientific and technological missions. These include communications satellites like Starlink; space stations such as the ISS; scientific satellites like the Hubble; Earth observation satellites from companies like Planet Labs, Umbra, and HawkEye 360; GPS; miniature CubeSats for education and research; and military/defense satellites.

Loading next visibility...
QIANFAN-29 details
Identifier
61562, 2024-185L
Orbit
LEO
Last TLE update11 hours ago
Origin
Flag of CNYUANX (CN / PRC)
ManufacturerGESIH/SECM
MissionOperational Commercial Communications
Bus & MotorQIANFAN, Unknown motor
Mass300 kg wet, ~300 kg dry
Launch date (UTC)
2024-10-15 (4 months ago)
Launch vehicle
CHANG ZHENG 6A
Launch site
Taiyaun Space Center, China (TSC)
Object type
Payload
Rocket body
Debris
Shape & HBRBox + 1 Pan, 10 m
Radar Cross Section13.200 m², Large (>1 m²)

Expand to show TLE details & history

TLE from 11 hours ago
0 QIANFAN-29
1 61562U 24185L   25035.83272172  .00000273  00000-0  19068-3 0  9996
2 61562  88.9881 113.5675 0008740 223.8552 136.1931 13.95670805 25698
Epoch: 2025-02-04T19:59Z
Definitive object data (Epoch: 2025-02-04T19:59:07.156Z)
Latitude-0.00006°
Longitude38.55533°
Altitude916.443 km
Speed7.391 km/s
True Right ascension07h 34m 16s
True Declination0° 00' 00"
Sunlit
Object was in full shadow at TLE epoch
Visualization TLE readout
Latitude32.01234°
Longitude-142.1247°
Altitude911.309 km
Speed7.4 km/s
Apparent Right ascension20h 12m 01s
Apparent Declination-1° 11' 32"
Sunlit
Object is in daylight
Visualization observer readout
Local Sidereal Time09:03:17
Azimuth19.995° NNE
Elevation-49.558°
Doppler factor1
Orbital elements
Apogee altitude912.178 km
Perigee altitude899.445 km
Semi-major axis7,283.948 km
Eccentricity0.000874
Inclination88.9881°
RAAN113.5675°
Arg. of periapsis223.8552°
True anomaly136.26237°
Mean anomaly136.1931°
Eccentric anomaly136.22774°
Mean motion3.49135 °/min
BSTAR0.00019068
Orbital period103.11 mins
Loading maneuver chart data...
Loading historical data...
Loading historical data...
Loading historical data...
Loading historical data...
Loading historical data...
Loading historical data...
Loading historical data...

QIANFAN-29 Visibility forecast

Observer location: undefined°, undefined

Span
Click to sort rows by Start time (UTC) header in descending order
Start Az.
Max El. time (UTC)
Max El. Az.
Max El.
End time (UTC)
End Az.
10 mins2025-02-05 17:13:01.741Z4.487° NNE2025-02-05 17:18:01.741Z70.416° E44.202°2025-02-05 17:23:01.741Z175.917° S
4 mins2025-02-05 18:59:01.741Z304.287° NW2025-02-05 19:01:01.741Z282.139° WNW13.362°2025-02-05 19:03:01.741Z261.324° W
9 mins2025-02-06 04:48:01.741Z145.385° SSE2025-02-06 04:52:01.741Z89.277° E33.677°2025-02-06 04:57:01.741Z16.351° NNE
8 mins2025-02-06 06:32:01.741Z232.696° WSW2025-02-06 06:36:01.741Z286.056° WNW23.217°2025-02-06 06:40:01.741Z331.6° NNW
|